Vorticity
1 1 12 6 -3 11 6 9 -3 3 1 20 -4 -2 -5 2 5 5 13 7 8 7 9 19 13 7 6 8 13 8 9 8 6 9 5 7 9 1 12 16 7 7 5 11
1 4 5 2 -5 13 5 -2 1 1 -1 3 -1 -0 -4 4 1 6 4 3 6 -6 -4 7 10 15 13 11 9 6 7 11 8 7 9 4 24 19 10 10 5 6 7 5
12 1 1 7 2 10 8 5 -4 11 2 2 7 6 7 -5 -3 6 6 9 5 1 -1 29 7 8 9 5 7 12 12 9 8 9 9 14 7 4 6 8 9 7 9 12
9 8 6 4 10 6 0 -4 11 14 0 -1 0 -1 19 -7 2 -4 11 11 9 1 -0 9 11 16 10 3 4 7 12 9 10 12 10 4 4 4 7 6 8 3 -4 4
9 15 -0 3 5 -5 24 6 -3 6 5 1 9 7 32 8 -3 4 15 -3 9 5 2 9 3 8 3 5 7 8 8 15 7 6 5 5 12 9 14 9 10 5 3 6
7 10 -1 4 2 7 15 2 2 3 0 5 15 4 7 7 -2 9 15 12 10 -1 -3 3 5 10 5 8 6 8 11 5 10 6 9 8 7 3 0 2 5 0 3 2
8 7 4 -9 -6 17 11 3 -1 -2 -2 22 -6 11 11 6 2 7 -7 9 24 19 14 11 3 7 17 2 1 1 8 9 5 4 -2 2 5 7 5 3 1 3 4 5
10 12 -0 -11 15 3 -12 5 3 1 -3 7 9 2 11 9 8 -7 15 7 9 12 -3 12 -5 -3 13 11 9 5 6 4 7 6 6 1 5 6 6 3 3 6 4 7
9 14 12 4 -10 9 -2 1 9 10 7 -1 4 1 -0 1 1 -5 1 -3 23 2 24 -3 10 2 31 16 -0 10 -2 0 6 7 5 3 7 3 5 7 7 -2 5 6
15 19 6 23 11 18 18 10 -3 -1 7 -3 9 -3 2 -2 4 1 5 -0 -7 -3 6 1 11 -3 5 29 22 -3 42 3 4 4 6 3 3 1 -0 4 2 5 3 10
12 10 12 0 10 8 10 41 6 4 -2 6 5 -1 1 3 2 -0 16 11 4 -1 6 3 -7 1 20 -9 14 17 25 22 3 -2 4 5 5 7 12 41 8 -1 5 5
3 4 1 -3 4 3 0 15 9 5 7 11 5 7 11 8 8 14 5 -6 1 12 18 23 12 1 16 -0 12 15 9 28 5 2 -5 -19 -28 16 91 -8 5 3 4 -2
1 6 -3 17 -0 3 2 4 3 1 1 11 4 8 14 16 8 10 16 11 8 -5 8 15 11 14 4 8 -5 20 23 7 6 1 -0 12 48 84 -9 16 3 7 5 2
-1 4 2 11 11 7 3 24 18 10 22 20 -5 9 4 2 4 -2 7 9 -1 -2 26 22 15 14 18 28 12 5 20 67 54 50 35 22 68 44 -32 1 -2 0 5 5
2 -1 4 -1 6 6 14 9 -0 4 3 19 17 3 4 6 -1 -2 10 -2 -3 10 23 8 17 14 23 12 29 -4 13 16 11 -1 4 7 11 31 13 1 0 6 6 7
3 3 3 6 2 22 9 7 -5 10 19 -14 1 21 3 9 3 4 7 20 13 23 15 15 12 27 -14 -3 7 4 2 -4 2 1 4 5 10 6 3 1 7 9 7 6
8 6 11 -3 -3 4 -0 -1 19 21 18 21 21 21 21 19 20 18 7 15 11 16 10 13 -3 13 -10 7 5 1 -4 -4 3 5 5 4 3 1 2 5 10 13 14 13
-1 9 -0 -4 1 2 8 14 17 18 8 -1 0 2 11 13 7 6 10 10 6 14 10 8 6 8 8 5 6 7 7 6 5 6 7 7 8 10 12 14 11 7 4 4
5 -7 6 2 4 4 12 20 9 -1 2 2 4 14 10 8 11 9 6 8 14 8 8 7 5 4 6 6 7 7 9 12 13 17 19 20 16 12 7 5 5 5 7 9
3 3 7 12 10 4 17 7 11 10 8 12 9 5 8 6 9 10 12 10 8 10 7 8 8 8 10 13 13 10 7 9 10 11 11 6 6 8 9 11 13 12 5 3
20 15 -0 9 -3 20 11 23 7 8 17 15 10 7 6 8 7 6 6 9 11 11 6 8 8 12 12 11 11 12 18 15 10 6 9 9 9 13 11 7 5 6 8 8
-8 -5 5 13 38 34 -2 7 0 10 8 9 10 9 10 10 12 13 15 13 10 7 8 12 12 11 14 17 14 9 4 5 9 10 12 14 11 9 5 7 7 7 11 10
15 24 26 -4 21 14 -4 3 6 6 8 7 7 8 10 12 10 10 8 7 6 8 10 10 12 16 10 8 6 4 9 8 8 9 9 9 7 6 7 7 9 10 9 7
-15 5 26 4 18 -2 -0 -1 3 6 9 8 8 9 10 9 7 6 6 7 10 11 9 10 13 9 10 8 5 7 9 8 9 11 10 7 7 6 7 11 13 9 7 10
6 7 2 5 0 4 0 2 2 5 9 8 7 9 10 8 7 7 9 14 12 10 10 10 12 12 9 7 6 8 8 9 12 8 8 7 8 8 10 9 6 6 10 11
6 6 7 3 7 3 2 4 5 8 8 8 8 9 9 9 9 13 16 11 9 8 9 9 11 10 8 6 8 9 9 12 10 10 7 8 9 10 6 9 10 11 10 5
Height
5894 5898 5901 5902 5905 5907 5908 5908 5910 5912 5912 5913 5913 5913 5912 5911 5911 5911 5909 5906 5904 5902 5901 5901 5901 5901 5901 5899 5900 5899 5899 5897 5899 5901 5901 5901 5902 5901 5900 5899 5899 5896 5894 5894
5892 5897 5899 5902 5904 5907 5909 5909 5911 5911 5912 5914 5915 5913 5913 5912 5913 5912 5911 5910 5907 5905 5904 5903 5902 5901 5900 5899 5899 5899 5898 5898 5898 5899 5902 5903 5902 5899 5900 5900 5900 5899 5896 5894
5890 5897 5898 5900 5904 5906 5909 5910 5911 5911 5911 5913 5914 5913 5913 5913 5913 5912 5911 5910 5910 5907 5905 5904 5903 5902 5901 5899 5900 5899 5899 5899 5899 5901 5901 5902 5901 5901 5902 5900 5901 5899 5897 5894
5889 5893 5894 5896 5902 5905 5907 5909 5909 5911 5912 5912 5913 5913 5912 5913 5913 5913 5911 5909 5908 5907 5906 5904 5904 5903 5902 5901 5901 5901 5900 5899 5900 5901 5900 5901 5901 5899 5899 5901 5900 5899 5897 5894
5886 5889 5891 5897 5902 5904 5907 5905 5908 5909 5910 5910 5911 5912 5912 5912 5912 5912 5912 5909 5908 5906 5904 5903 5902 5900 5901 5901 5901 5900 5899 5898 5899 5900 5898 5896 5899 5897 5896 5897 5897 5897 5897 5894
5883 5886 5890 5897 5900 5902 5905 5906 5907 5907 5907 5908 5909 5910 5909 5910 5910 5910 5910 5909 5908 5905 5904 5902 5900 5899 5897 5896 5897 5897 5897 5899 5900 5899 5898 5897 5898 5897 5895 5895 5896 5897 5896 5894
5879 5885 5891 5896 5897 5895 5900 5903 5905 5907 5906 5907 5908 5907 5908 5909 5909 5909 5908 5908 5906 5904 5902 5899 5895 5896 5893 5892 5893 5892 5894 5894 5896 5895 5894 5894 5893 5895 5894 5894 5895 5894 5893 5892
5877 5885 5889 5895 5896 5895 5892 5899 5902 5904 5905 5905 5904 5905 5907 5908 5908 5909 5907 5907 5904 5900 5897 5895 5891 5893 5892 5890 5892 5891 5890 5892 5888 5888 5886 5887 5888 5890 5892 5893 5892 5894 5891 5889
5876 5882 5887 5892 5893 5895 5896 5898 5902 5901 5902 5902 5903 5903 5905 5905 5907 5907 5906 5904 5901 5896 5894 5893 5893 5891 5892 5887 5888 5890 5889 5887 5890 5887 5889 5889 5887 5883 5885 5887 5888 5889 5888 5887
5876 5882 5886 5889 5891 5892 5894 5897 5898 5898 5899 5899 5899 5900 5901 5901 5902 5904 5904 5901 5896 5891 5890 5889 5889 5889 5884 5884 5883 5886 5883 5881 5884 5886 5888 5884 5882 5884 5876 5877 5882 5882 5881 5878
5873 5880 5885 5886 5888 5889 5890 5891 5895 5895 5896 5896 5896 5897 5897 5896 5897 5899 5899 5897 5892 5887 5885 5884 5884 5884 5878 5878 5875 5875 5874 5873 5873 5877 5879 5877 5877 5876 5871 5869 5873 5875 5880 5878
5872 5878 5881 5884 5885 5886 5888 5890 5892 5892 5893 5892 5892 5892 5892 5892 5892 5893 5893 5891 5888 5882 5877 5875 5875 5875 5873 5872 5870 5867 5865 5865 5866 5869 5868 5869 5866 5863 5853 5859 5870 5870 5872 5872
5871 5876 5879 5882 5884 5885 5886 5887 5888 5888 5889 5888 5888 5888 5888 5888 5888 5887 5886 5884 5882 5878 5873 5869 5869 5868 5865 5863 5862 5857 5854 5854 5854 5857 5862 5863 5854 5834 5856 5853 5862 5866 5865 5865
5869 5873 5877 5880 5882 5882 5882 5883 5884 5885 5884 5884 5884 5885 5885 5884 5884 5882 5880 5879 5877 5874 5870 5866 5864 5863 5861 5858 5853 5848 5842 5841 5842 5851 5858 5854 5847 5832 5840 5847 5853 5857 5857 5857
5864 5868 5873 5876 5877 5877 5879 5880 5880 5880 5880 5879 5880 5880 5880 5880 5880 5877 5876 5874 5872 5870 5867 5864 5862 5859 5857 5853 5847 5842 5841 5836 5837 5847 5849 5846 5846 5841 5843 5847 5846 5845 5847 5849
5861 5865 5869 5871 5874 5874 5873 5874 5874 5874 5874 5875 5874 5874 5875 5874 5874 5871 5869 5868 5865 5865 5863 5860 5857 5853 5850 5847 5843 5838 5837 5837 5838 5840 5841 5839 5839 5836 5838 5837 5839 5840 5839 5839
5859 5862 5865 5867 5869 5869 5869 5869 5869 5869 5869 5870 5870 5870 5869 5868 5868 5866 5863 5861 5859 5858 5858 5856 5854 5850 5846 5844 5843 5841 5840 5839 5837 5835 5834 5833 5830 5830 5829 5829 5829 5828 5828 5827
5855 5859 5863 5865 5866 5865 5866 5865 5865 5864 5865 5866 5865 5863 5863 5863 5861 5858 5857 5857 5856 5855 5853 5851 5850 5848 5846 5842 5841 5840 5837 5834 5832 5829 5828 5825 5821 5819 5818 5817 5815 5814 5814 5813
5853 5857 5859 5860 5861 5862 5862 5861 5862 5862 5861 5861 5860 5860 5858 5857 5854 5852 5851 5851 5851 5848 5846 5845 5843 5843 5840 5837 5832 5829 5828 5824 5820 5818 5814 5813 5812 5811 5810 5808 5806 5805 5805 5803
5849 5852 5855 5855 5854 5856 5858 5857 5856 5855 5857 5856 5855 5853 5851 5849 5847 5844 5842 5841 5842 5842 5840 5840 5837 5833 5831 5827 5824 5820 5816 5814 5812 5812 5811 5810 5808 5807 5804 5802 5799 5797 5796 5794
5843 5845 5847 5846 5845 5849 5852 5852 5850 5851 5853 5849 5848 5846 5844 5842 5841 5838 5835 5835 5834 5833 5831 5829 5824 5819 5816 5814 5813 5810 5809 5807 5806 5802 5800 5797 5796 5793 5790 5789 5788 5786 5783 5780
5837 5839 5840 5840 5838 5842 5846 5847 5847 5846 5844 5843 5841 5840 5838 5836 5833 5831 5830 5829 5827 5824 5822 5820 5818 5815 5812 5807 5804 5801 5798 5795 5793 5791 5788 5787 5783 5780 5778 5776 5773 5770 5767 5763
5832 5834 5833 5836 5838 5838 5840 5842 5841 5839 5837 5836 5835 5833 5831 5829 5827 5826 5826 5823 5819 5816 5813 5810 5807 5805 5803 5801 5799 5796 5792 5789 5783 5779 5777 5774 5772 5768 5765 5760 5757 5755 5750 5747
5826 5826 5826 5830 5832 5834 5835 5835 5834 5832 5831 5829 5827 5825 5824 5822 5820 5818 5816 5814 5811 5809 5806 5804 5801 5797 5794 5792 5791 5789 5786 5781 5777 5773 5769 5765 5761 5756 5752 5748 5744 5739 5735 5731
5819 5821 5822 5824 5826 5827 5827 5827 5826 5826 5824 5820 5818 5817 5816 5815 5813 5811 5808 5807 5805 5803 5801 5798 5795 5792 5789 5785 5781 5776 5772 5769 5765 5762 5759 5755 5751 5745 5739 5734 5729 5724 5718 5714
5812 5813 5815 5817 5818 5819 5819 5819 5818 5817 5815 5812 5811 5810 5808 5806 5803 5802 5800 5798 5796 5793 5790 5788 5785 5783 5780 5777 5773 5770 5767 5763 5760 5756 5752 5747 5742 5736 5731 5727 5722 5714 5708 5702